Weather History for St. Petersburg Airport, FL

Change the Weather History Date:

Tuesday, August 27, 2013

  Actual Average Record
Temperature  
Mean Temperature 83 °F -  
Max Temperature 91 °F 90 °F 94 °F (1987)
Min Temperature 75 °F 76 °F 70 °F (1952)
Cooling Degree Days 18    
Growing Degree Days 33 (Base 50)    
Moisture  
Dew Point 73 °F    
Average Humidity 79    
Maximum Humidity 94    
Minimum Humidity 48    
Precipitation  
Precipitation 0.30 in - - ()
Sea Level Pressure  
Sea Level Pressure 30.03 in    
Wind  
Wind Speed 8 mph (ENE)    
Max Wind Speed 15 mph    
Max Gust Speed 28 mph    
Visibility 10 miles    
Events Rain , Thunderstorm    
Averages and records for this station are not official NWS values.
T = Trace of Precipitation, MM = Missing Value Source: NWS Daily Summary

Daily Weather History Graph

Daily Weather History Graph

Search for Another Location

Airport:

Trip Planner

Search our weather history database for the weather conditions in past years. The results will help you decide how hot, cold, wet, or windy it might be!

Date:

Astronomy

Aug. 27, 2013 Rise Set
Actual Time 7:07 AM EDT 7:56 PM EDT
Civil Twilight 6:43 AM EDT 8:20 PM EDT
Nautical Twilight 6:14 AM EDT 8:48 PM EDT
Astronomical Twilight 5:45 AM EDT 9:17 PM EDT
Moon No Moon Rise 1:26 PM EDT (8/27)
Length of Visible Light 13h 37m
Length of Day
12h 49m
Waning Gibbous, 57% of the Moon is Illuminated
Aug 27
Waning Gibbous
Aug 28
Last Quarter
Sep 5
New
Sep 12
First Quarter
Sep 19
Full

Hourly Weather History & Observations

Time (EDT) Temp. Heat Index Dew Point Humidity Pressure Visibility Wind Dir Wind Speed Gust Speed Precip Events Conditions
12:53 AM 78.1 °F - 73.0 °F 84% 30.06 in 10.0 mi ENE 8.1 mph - N/A   Clear
1:53 AM 78.1 °F - 73.9 °F 87% 30.04 in 10.0 mi East 8.1 mph - N/A   Clear
2:53 AM 78.1 °F - 73.0 °F 84% 30.03 in 10.0 mi East 8.1 mph - N/A   Clear
3:53 AM 78.1 °F - 73.9 °F 87% 30.02 in 10.0 mi ENE 8.1 mph - N/A   Clear
4:53 AM 77.0 °F - 73.9 °F 90% 30.02 in 10.0 mi NE 6.9 mph - N/A   Clear
5:53 AM 77.0 °F - 73.9 °F 90% 30.03 in 10.0 mi NE 10.4 mph - N/A   Clear
6:53 AM 77.0 °F - 73.9 °F 90% 30.03 in 10.0 mi NE 8.1 mph - N/A   Clear
7:37 AM 77.0 °F - 73.4 °F 89% 30.04 in 10.0 mi ENE 10.4 mph 16.1 mph N/A   Mostly Cloudy
7:53 AM 77.0 °F - 75.0 °F 94% 30.04 in 10.0 mi ENE 8.1 mph - N/A   Mostly Cloudy
8:35 AM 78.8 °F - 73.4 °F 83% 30.05 in 10.0 mi ENE 5.8 mph - N/A   Mostly Cloudy
8:45 AM 78.8 °F - 73.4 °F 83% 30.05 in 10.0 mi NE 9.2 mph - N/A   Scattered Clouds
8:53 AM 79.0 °F - 75.0 °F 88% 30.05 in 10.0 mi NE 6.9 mph - N/A   Partly Cloudy
9:53 AM 81.0 °F 86.2 °F 73.9 °F 79% 30.06 in 10.0 mi ENE 8.1 mph - N/A   Clear
10:53 AM 82.9 °F 89.4 °F 73.9 °F 74% 30.06 in 10.0 mi East 10.4 mph - N/A   Scattered Clouds
11:53 AM 86.0 °F 93.8 °F 73.9 °F 67% 30.06 in 10.0 mi East 8.1 mph - N/A   Partly Cloudy
12:53 PM 86.0 °F 92.2 °F 72.0 °F 63% 30.05 in 10.0 mi East 9.2 mph - N/A   Partly Cloudy
1:53 PM 89.1 °F 96.0 °F 72.0 °F 57% 30.03 in 10.0 mi East 8.1 mph 17.3 mph N/A   Scattered Clouds
2:53 PM 89.1 °F 95.0 °F 71.1 °F 55% 30.01 in 10.0 mi East 9.2 mph - N/A   Scattered Clouds
3:53 PM 89.1 °F 92.9 °F 68.0 °F 50% 29.99 in 10.0 mi East 9.2 mph - N/A   Clear
4:53 PM 91.0 °F 95.6 °F 69.1 °F 48% 29.98 in 10.0 mi East 4.6 mph - N/A   Scattered Clouds
5:53 PM 88.0 °F 91.4 °F 68.0 °F 51% 29.99 in 10.0 mi SSW 9.2 mph - N/A   Overcast
6:37 PM 80.6 °F 85.4 °F 73.4 °F 79% 29.99 in 10.0 mi West 8.1 mph - 0.14 in Rain , Thunderstorm Light Rain
6:53 PM 79.0 °F - 75.0 °F 88% 30.00 in 10.0 mi SSW 15.0 mph 27.6 mph 0.14 in Thunderstorm Thunderstorm
7:37 PM 77.0 °F - 73.4 °F 89% 30.01 in 10.0 mi SW 11.5 mph - 0.15 in   Overcast
7:53 PM 75.9 °F - 73.9 °F 94% 30.01 in 10.0 mi SW 10.4 mph - 0.15 in   Scattered Clouds
8:53 PM 77.0 °F - 73.9 °F 90% 30.02 in 10.0 mi WSW 5.8 mph - N/A   Mostly Cloudy
9:53 PM 77.0 °F - 73.9 °F 90% 30.04 in 10.0 mi Calm Calm - N/A   Overcast
10:53 PM 78.1 °F - 75.0 °F 90% 30.04 in 10.0 mi Calm Calm - N/A   Overcast
11:53 PM 77.0 °F - 73.9 °F 90% 30.05 in 10.0 mi Calm Calm - 0.01 in   Scattered Clouds